TimeEDT,TemperatureF,Dew PointF,Humidity,Sea Level PressureIn,VisibilityMPH,Wind Direction,Wind SpeedMPH,Gust SpeedMPH,PrecipitationIn,Events,Conditions,WindDirDegrees,DateUTC
12:53 AM,59.0,57.0,93,30.04,10.0,Calm,Calm,-,N/A,,Clear,0,2013-07-12 04:53:00
1:53 AM,57.9,57.0,97,30.05,10.0,Calm,Calm,-,N/A,,Clear,0,2013-07-12 05:53:00
2:53 AM,57.9,57.0,97,30.04,10.0,Calm,Calm,-,N/A,,Clear,0,2013-07-12 06:53:00
3:53 AM,57.0,55.9,96,30.05,10.0,Calm,Calm,-,N/A,,Clear,0,2013-07-12 07:53:00
4:53 AM,57.0,55.0,93,30.06,10.0,Calm,Calm,-,N/A,,Clear,0,2013-07-12 08:53:00
5:53 AM,55.9,55.0,97,30.07,10.0,Calm,Calm,-,N/A,,Clear,0,2013-07-12 09:53:00
6:53 AM,57.9,55.9,93,30.09,10.0,Calm,Calm,-,N/A,,Clear,0,2013-07-12 10:53:00
7:53 AM,62.1,59.0,90,30.09,10.0,Calm,Calm,-,N/A,,Clear,0,2013-07-12 11:53:00
8:53 AM,66.9,57.9,73,30.09,10.0,NE,3.5,-,N/A,,Clear,50,2013-07-12 12:53:00
9:53 AM,72.0,59.0,64,30.09,10.0,NNE,4.6,-,N/A,,Clear,30,2013-07-12 13:53:00
10:53 AM,75.0,59.0,57,30.10,10.0,NNE,5.8,-,N/A,,Clear,30,2013-07-12 14:53:00
11:53 AM,77.0,59.0,54,30.09,10.0,NE,9.2,-,N/A,,Clear,50,2013-07-12 15:53:00
12:53 PM,79.0,55.9,45,30.09,10.0,ENE,10.4,-,N/A,,Partly Cloudy,60,2013-07-12 16:53:00
1:53 PM,80.1,55.9,43,30.08,10.0,NE,11.5,-,N/A,,Clear,50,2013-07-12 17:53:00
2:53 PM,80.1,55.9,43,30.07,10.0,ENE,11.5,16.1,N/A,,Clear,60,2013-07-12 18:53:00
3:53 PM,81.0,55.9,42,30.07,10.0,ENE,6.9,-,N/A,,Partly Cloudy,70,2013-07-12 19:53:00
4:53 PM,80.1,55.0,42,30.06,10.0,Variable,3.5,-,N/A,,Clear,0,2013-07-12 20:53:00
5:53 PM,81.0,55.9,42,30.05,10.0,NNE,11.5,16.1,N/A,,Clear,30,2013-07-12 21:53:00
6:53 PM,80.1,55.9,43,30.04,10.0,ENE,6.9,-,N/A,,Clear,60,2013-07-12 22:53:00
7:53 PM,78.1,55.0,45,30.04,10.0,ENE,6.9,-,N/A,,Clear,70,2013-07-12 23:53:00
8:53 PM,75.0,55.9,51,30.05,10.0,ENE,6.9,-,N/A,,Clear,60,2013-07-13 00:53:00
9:53 PM,71.1,55.9,59,30.05,10.0,ENE,4.6,-,N/A,,Clear,60,2013-07-13 01:53:00
10:53 PM,69.1,55.9,63,30.06,10.0,NE,4.6,-,N/A,,Clear,50,2013-07-13 02:53:00
11:53 PM,66.9,55.9,68,30.06,10.0,NNE,4.6,-,N/A,,Clear,30,2013-07-13 03:53:00